DECAYED

STARLINK-2007, 47602 (Decayed)

Orbit data source: Space-Track

STARLINK-2007, 47602 was a payload satellite owned by SpaceX/Seattle (US) in LEO that was launched on Thu, 04 Feb 2021 UTC via an FALCON 9 launch vehicle from the Air Force Eastern Test Range (AFETR). Payload-class satellites include a variety of spacecraft equipped with specific instruments for various scientific and technological missions. These include communications satellites like Starlink; space stations such as the ISS; scientific satellites like the Hubble; Earth observation satellites from companies like Planet Labs, Umbra, and HawkEye 360; GPS; miniature CubeSats for education and research; and military/defense satellites.

Not visible in the next 10 days
Identifier
47602, 2021-009BG
Orbit
Decayed
Country
Flag of USUS
Related business
Manufacturer
SpaceX/Seattle
Mission
Decayed Commercial Communications
Bus & Motor
STARLINK, Unknown motor
Mass
260 kg wet, ~248 kg dry
Launch date (UTC)
2021-02-04 (5 years ago)
Launch vehicle
FALCON 9
Launch site
Air Force Eastern Test Range (AFETR)
Object type
Payload
Rocket body
Debris
Shape & HBR
Box + 1 Pan, 10.1 m
Radar Cross Section
13.562 m², Large (>1 m²)

Expand to show TLE details & history
Last TLE update: 1 year ago

TLE from 1 year ago
0 STARLINK-2007
1 47602U 21009BG  25117.52267897  .17989522  12404-4  12425-2 0  9997
2 47602  53.0105 284.0165 0010340 281.0676 187.1532 16.40221141234816
Epoch: 2025-04-27T12:32Z
TLE epoch observation values (Epoch: 2025-04-27T12:32:39.463Z)
Latitude
49.5099°
Longitude
-1.20423°
Altitude
177.574 km
Speed
7.802 km/s
True Right ascension
02h 50m 50s
True Declination
49° 19' 30"
Sunlit
Object was in daylight at epoch
Visualization orbit readout
Latitude
Unknown
Longitude
Unknown
Altitude
Unknown
Speed
Unknown
Apparent Right ascension
Unknown
Apparent Declination
Unknown
Sunlit
N/A
Visualization observer readout
Local Sidereal Time
23:08:51
Azimuth
Unknown
Elevation
Unknown
Doppler factor
Unknown
Orbital elements
Apogee altitude
172.274 km
Perigee altitude
158.742 km
Semi-major axis
6,543.645 km
Eccentricity
0.00103
Inclination
53.0105°
RAAN
284.0165°
Arg. of periapsis
281.0676°
True anomaly
187.13846°
Mean anomaly
187.1532°
Eccentric anomaly
187.14583°
Mean motion
4.10028 °/min
Orbital period
87.8 mins
BSTAR
0.0012425
Loading maneuver chart data...
Computing Atmospheric mass density...

Documentation

Showing up to 5 results
|